[[{"header":{"parameterUnit":"m.s-1","parameterCategory":1,"la1":30.2992,"la2":30.254,"lo1":-89.0895,"lo2":-89.0443,"dy":0.0025,"dx":0.0025,"nx":19,"ny":19,"refTime":"2026-05-15T21:00:00:Z","depth":0,"parameterNumber":2,"parameterNumberName":"U-component_of_WINDS"},"data":[0,0,0,-3.5856,-3.5856,-3.5855,-3.5855,-3.5874,-3.5874,0,0,0,0,0,0,0,0,0,0,0,-3.5867,-3.5868,-3.5856,-3.5856,-3.5855,-3.5855,-3.5873,-3.5874,0,0,0,0,0,0,0,0,0,0,0,-3.5867,-3.5868,-3.5868,-3.5856,-3.5855,-3.5855,-3.5873,-3.5867,0,0,0,0,0,0,0,0,0,0,-3.5865,-3.5886,-3.5867,-3.5868,-3.5856,-3.5855,-3.5855,-3.5867,-3.5868,-3.5882,0,-3.5898,0,-3.5886,-3.5876,-3.5877,0,0,0,-3.5847,-3.5886,-3.5875,-3.5868,-3.5856,-3.5855,-3.5853,-3.5867,-3.5868,-3.5884,-3.5898,-3.5898,-3.5887,-3.5877,-3.5877,-3.5989,-3.599,0,0,-3.5848,-3.5873,-3.5874,-3.5876,-3.5877,-3.5853,-3.5853,-3.5867,-3.5885,-3.5898,-3.5898,-3.5887,-3.5877,-3.5877,-3.5988,-3.5989,0,0,0,-3.5853,-3.5874,-3.5862,-3.5876,-3.5874,-3.5853,-3.5853,-3.5884,-3.5878,-3.5898,-3.5887,-3.5877,-3.5878,-3.5987,-3.5988,-3.6057,0,0,0,-3.5853,-3.5877,-3.5863,-3.5878,-3.5875,-3.5879,-3.587,-3.5877,-3.5878,-3.5887,-3.5877,-3.5878,-3.5986,-3.5988,-3.6053,-3.6085,0,0,0,-3.5863,-3.5878,-3.5882,-3.588,-3.588,-3.5878,-3.5873,-3.5877,-3.5872,-3.5877,-3.5878,-3.5985,-3.5987,-3.6049,-3.6079,-3.6121,0,0,0,-3.5882,-3.5943,-3.5883,-3.5948,-3.588,-3.5921,-3.5872,-3.5902,-3.5914,-3.5877,-3.5986,-3.5988,-3.6048,-3.6075,-3.6117,-3.616,-3.618,0,0,-3.5973,-3.5955,-3.5991,-3.5937,-3.5995,-3.5919,-3.5987,-3.5975,-3.5953,-3.5978,-3.5981,-3.6054,-3.6078,-3.612,-3.629,-3.6306,0,0,0,-3.6029,-3.6054,-3.6064,-3.6077,-3.607,-3.6066,-3.604,-3.6036,-3.6056,-3.5971,-3.6081,-3.6095,-3.6118,-3.6137,-3.6151,-3.6169,-3.5999,-3.5998,-3.5998,-3.6193,-3.6161,-3.6218,-3.6187,-3.6201,-3.6175,-3.6183,-3.6173,-3.6137,-3.6164,-3.617,-3.6277,-3.6301,-3.6311,-3.6331,-3.6192,-3.6192,-3.6193,-3.6193,-3.6323,-3.6354,-3.6306,-3.6344,-3.6311,-3.6343,-3.6321,-3.6295,-3.632,-3.6269,-3.6289,-3.6234,-3.633,-3.6345,-3.6198,-3.6197,-3.6196,-3.6196,-3.6195,-3.6425,-3.6434,-3.6429,-3.6445,-3.6462,-3.6429,-3.6455,-3.6425,-3.6396,-3.6415,-3.6418,-3.6417,-3.6411,-3.6419,-3.642,-3.642,-3.6421,-3.6421,-3.6421,-3.6533,-3.6524,-3.6549,-3.6548,-3.6553,-3.6556,-3.6532,-3.6536,-3.6533,-3.6509,-3.6508,-3.647,-3.6346,-3.6314,-3.6427,-3.6426,-3.6425,-3.6424,-3.6424,-3.6672,-3.6636,-3.6676,-3.6681,-3.6677,-3.6696,-3.6657,-3.6669,-3.6668,-3.6683,-3.6641,-3.6555,-3.6534,-3.6522,-3.6496,-3.6648,-3.6648,-3.6648,-3.6648,-3.6757,-3.6745,-3.6778,-3.6789,-3.6795,-3.6765,-3.6812,-3.6795,-3.6772,-3.677,-3.6744,-3.6708,-3.6698,-3.6682,-3.6667,-3.6642,-3.6828,-3.6828,-3.6828,-3.6841,-3.6828,-3.6873,-3.6849,-3.6845,-3.6842,-3.6885,-3.6899,-3.6866,-3.6835,-3.6768,-3.676,-3.67,-3.6683,-3.6648,-3.6625,-3.6578,0,0]},{"header":{"parameterUnit":"m.s-1","parameterCategory":1,"la1":30.2992,"la2":30.254,"lo1":-89.0895,"lo2":-89.0443,"dy":0.0025,"dx":0.0025,"nx":19,"ny":19,"refTime":"2026-05-15T21:00:00:Z","depth":0,"parameterNumber":3,"parameterNumberName":"V-component_of_WINDS"},"data":[0,0,0,4.6581,4.6581,4.6608,4.6608,4.6634,4.6634,0,0,0,0,0,0,0,0,0,0,0,4.6569,4.6569,4.6581,4.6581,4.6608,4.6608,4.6634,4.6634,0,0,0,0,0,0,0,0,0,0,0,4.6569,4.6569,4.6569,4.6581,4.6608,4.6608,4.6634,4.6616,0,0,0,0,0,0,0,0,0,0,4.6592,4.6578,4.6569,4.6569,4.6581,4.6608,4.6608,4.6616,4.6618,4.6619,0,4.6621,0,4.6628,4.6636,4.6636,0,0,0,4.6584,4.6576,4.6587,4.6569,4.6582,4.6608,4.6596,4.6617,4.6619,4.6621,4.6621,4.6622,4.6628,4.6636,4.6636,4.6641,4.6641,0,0,4.6582,4.6572,4.6586,4.6588,4.6585,4.6596,4.6597,4.6618,4.6616,4.6621,4.6623,4.6629,4.6636,4.6636,4.6641,4.6641,0,0,0,4.6576,4.657,4.6581,4.6587,4.6592,4.6596,4.6598,4.6615,4.662,4.6623,4.6629,4.6636,4.6636,4.6641,4.6641,4.6628,0,0,0,4.6576,4.6567,4.658,4.6574,4.6592,4.6605,4.6595,4.6618,4.6621,4.6629,4.6636,4.6636,4.6641,4.6641,4.6628,4.6623,0,0,0,4.6569,4.6566,4.6569,4.6573,4.6585,4.6604,4.661,4.6619,4.6625,4.6636,4.6637,4.6641,4.6641,4.6629,4.6624,4.6622,0,0,0,4.6558,4.6556,4.6569,4.6569,4.6584,4.6596,4.661,4.6619,4.6627,4.6636,4.6641,4.6641,4.6629,4.6624,4.6622,4.6618,4.6616,0,0,4.6549,4.6554,4.6555,4.6568,4.6575,4.6593,4.6598,4.6614,4.6624,4.6634,4.6635,4.6628,4.6624,4.6622,4.6605,4.6602,0,0,0,4.6549,4.6549,4.6553,4.6561,4.6575,4.6586,4.6603,4.6609,4.6619,4.6628,4.6627,4.6625,4.6624,4.6622,4.6621,4.6621,4.664,4.664,4.664,4.652,4.6535,4.6537,4.6555,4.6563,4.6581,4.6588,4.66,4.661,4.661,4.6613,4.6601,4.6599,4.6598,4.6598,4.6612,4.6612,4.6612,4.6612,4.6509,4.6512,4.6529,4.6537,4.6552,4.6558,4.6576,4.6584,4.6591,4.6599,4.6599,4.6607,4.6595,4.6596,4.6611,4.6611,4.6611,4.6611,4.6611,4.6492,4.6497,4.6505,4.652,4.6529,4.6546,4.6554,4.6567,4.6578,4.6578,4.6583,4.6584,4.6586,4.658,4.658,4.658,4.658,4.658,4.658,4.6472,4.6482,4.6488,4.6503,4.6511,4.6522,4.6542,4.6549,4.656,4.6569,4.6569,4.658,4.6591,4.6594,4.6579,4.6579,4.6579,4.6579,4.6579,4.6455,4.6461,4.647,4.6478,4.6498,4.6506,4.6523,4.6537,4.6544,4.6548,4.6559,4.6566,4.6571,4.6573,4.6575,4.6556,4.6556,4.6556,4.6556,4.6441,4.6446,4.6458,4.647,4.6483,4.65,4.6508,4.6523,4.6539,4.6545,4.6549,4.6554,4.6555,4.656,4.6561,4.6564,4.6542,4.6542,4.6542,4.6432,4.6439,4.6444,4.6462,4.6479,4.6493,4.6501,4.6513,4.6532,4.6542,4.6549,4.655,4.6557,4.6559,4.6568,4.657,4.6575,0,0]}]]